• MPC Preparation (Info)

  • MPEC 2023-C49 : 2019 FG1 = 2001 JF

    The following Minor Planet Electronic Circular may be linked-to from your own Web pages, but must not otherwise be redistributed electronically.

    A form allowing access to any MPEC is at the bottom of this page.


    Read MPEC 2023-C48 Read MPEC 2023-C50


    M.P.E.C. 2023-C49                              Issued 2023 February 7, 19:53 UT
    
         The Minor Planet Electronic Circulars contain information on unusual
             minor planets, routine data on comets and natural satellites,
             and occasional editorial announcements.  They are published
        on behalf of Division F of the International Astronomical Union by the
              Minor Planet Center, Smithsonian Astrophysical Observatory,
                              Cambridge, MA 02138, U.S.A.
    			  
                 Prepared using the Tamkin Foundation Computer Network
    
                                  MPC@CFA.HARVARD.EDU
                URL https://www.minorplanetcenter.net/    ISSN 1523-6714
    
                               2019 FG1 = 2001 JF                            
    
                             Revision to MPEC 2019-F140
    
    Orbital elements:
    2019 FG1 = 2001 JF                                       Earth MOID = 0.1135 AU
    Id. P. VanWylen
    Epoch 2023 Feb. 25.0 TT = JDT 2460000.5                 Veres                   
    M  27.37987              (2000.0)            P               Q                  
    n   0.27407800     Peri.  162.25074     -0.91479252     +0.38576580             
    a   2.3472171      Node    41.09274     -0.38916552     -0.76234123             
    e   0.5270267      Incl.   10.49712     -0.10818890     -0.51963506             
    P   3.60           H   22.89          G   0.15           U   0                  
    Residuals in seconds of arc
    010502 608  0.6+  0.1-    190330 033  0.1+  0.2-    190424 I52  0.2-  0.2-
    010502 608  0.7+  0.2-    190330 033  0.1+  0.1-    190424 I52  0.1-  0.3-
    010502 608  0.2+  1.3+    190330 033  0.1+  0.1-    190425 G40  0.0   0.1-
    010503 658  0.5-  0.1+    190330 033  0.8+  1.0-    190425 G40  0.2-  0.2+
    010503 658  0.0   0.1+    190330 033  1.1+  0.9-    190425 G40  0.2+  0.2+
    010503 658  0.5-  0.4-    190331 I93  0.2-  0.9-    190425 G96  0.1-  0.1-
    190209 F52  0.2+  0.2+    190331 I93  0.3-  0.1-    190425 G96  0.0   0.0
    190209 F52  0.1+  0.2-    190331 I93  0.6+  0.2-    190425 G96  0.2+  0.5-
    190328 F51  0.0   0.2+    190331 I52  0.3-  0.3-    190425 G96  0.1+  0.0
    190328 F51  0.1-  0.0     190331 I52 (0.5-  1.2+)   190425 691  0.3-  0.2+
    190328 G96  0.1+  0.1+    190331 I52  0.3-  0.3-    190425 691  0.3-  0.1+
    190328 F51  0.0   0.0     190331 I52  0.4-  0.4+    190425 691  0.3-  0.0
    190328 G96  0.6-  0.3-    190331 033  0.2-  0.1-    190426 703  0.3+  0.1-
    190328 F51 (0.2+  0.4-)   190331 033  0.1+  0.2-    190426 703  0.3-  0.3+
    190328 G96  0.3-  0.4+    190331 033  0.1+  0.1-    190426 703  0.4+  0.4-
    190328 G96  0.2+  0.1-    190402 I52  0.3+  0.5-    190426 703  0.1-  0.3+
    190328 G96  0.0   0.1+    190402 I52  0.0   0.4-    190427 I52  0.0   0.0
    190328 G96  0.0   0.4-    190402 I52  0.3+  0.2-    190427 I52  0.1-  0.5-
    190328 G96  0.3-  0.9-    190402 I52  0.1-  0.1+    190427 I52  0.0   0.1-
    190328 G96  0.2-  0.4+    190405 I52  0.1+  0.4-    190427 I52  0.4-  0.2-
    190328 L01  0.1-  0.0     190405 I52  0.2+  0.1-    190501 C95  0.3-  1.1+
    190328 L01  0.1-  0.0     190405 I52  0.2-  0.2+    190501 C95  0.0   0.7+
    190328 L01  0.0   0.1-    190405 I52  0.3+  0.6+    190501 C95  0.2-  0.2+
    190328 L01  0.0   0.1-    190410 I52  0.3-  0.2+    190501 C95  0.0   0.2+
    190328 L01  0.2+  0.2-    190410 I52  0.0   0.1+    190501 204  0.3+  0.1+
    190329 I52  0.3+  0.5+    190410 I52  0.0   0.0     190501 204  0.1+  0.1+
    190329 I52  0.8+  0.4+    190410 I52  0.3-  0.2+    190504 G96  0.1+  0.2+
    190329 I52  0.3+  0.5-    190414 I52  0.2+  0.3-    190504 I52  0.1+  0.1+
    190329 I52  0.1+  0.1+    190414 I52  0.1+  0.1+    190504 G96  0.0   0.2+
    190329 711  0.8-  0.1+    190414 I52  0.1+  0.3-    190504 691  0.3-  0.2+
    190329 711  0.8-  0.2+    190414 I52  0.1+  0.1-    190504 G96  0.1-  0.1-
    190329 711  1.0-  0.1+    190414 691  0.0   0.3+    190504 I52  0.1+  0.1-
    190330 033  0.0   0.2-    190414 691  0.3+  0.1-    190504 I52  0.1-  0.2+
    190330 033  0.4+  0.0     190414 691  0.4-  0.1+    190504 I52  0.0   0.3-
    190330 033  0.2+  0.5+    190416 H21  0.1-  0.4+    190504 691  0.1-  0.1+
    190330 I52  0.4-  0.0     190416 H21  0.5-  0.6+    190504 691  0.1-  0.2-
    190330 I52  0.3+  0.0     190416 H21  0.6-  0.0     190506 T05  0.1-  0.3+
    190330 I52  0.2-  0.6-    190416 I52  0.4-  0.5-    190506 T05  0.1+  0.1+
    190330 711  0.2+  0.8-    190416 I52  0.2+  0.8+    190506 T05  0.0   0.1-
    190330 711  0.3-  0.6+    190416 I52  0.2+  0.0     190506 T05  0.2+  0.3+
    190330 711  0.1-  0.1-    190423 K87  0.9+  0.5-    190523 807  0.2+  0.1-
    190330 711  0.2-  0.0     190423 K87  0.7+  0.4-    190523 807  0.4+  0.2+
    190330 033  0.0   0.0     190423 K87  0.3+  0.5-    190523 807  0.0   0.2-
    190330 033  0.1+  0.1-    190424 I52  0.1+  0.3-
    
    Ephemeris:
    2019 FG1                 a,e,i = 2.35, 0.53, 10                  q = 1.1102
    Date    TT    R. A. (2000) Decl.     Delta      r    Elong.  Phase     V
    2023 01 08    17 49 00.2 -26 38 49   2.1428  1.2626    19.8    15.3    25.9
    ...
    2023 01 23    18 44 42.5 -27 25 18   2.2000  1.3482    22.8    16.5    26.1
    ...
    2023 01 31    19 12 40.3 -27 19 53   2.2295  1.3981    24.8    17.2    26.3
    ...
    2023 02 06    19 32 43.4 -27 04 32   2.2504  1.4368    26.5    17.8    26.4
    2023 02 07    19 35 59.2 -27 01 08   2.2538  1.4434    26.8    17.9    26.4
    2023 02 08    19 39 13.6 -26 57 31   2.2571  1.4500    27.1    18.0    26.4
    ...
    2023 02 14    19 58 11.0 -26 31 32   2.2759  1.4899    28.9    18.7    26.5
    ...
    2023 02 22    20 22 09.5 -25 47 06   2.2977  1.5442    31.6    19.6    26.6
    ...
    2023 03 09    21 03 09.0 -24 02 53   2.3263  1.6478    37.1    21.3    26.8
    
    M. P. C. Staff               (C) Copyright 2023 MPC           M.P.E.C. 2023-C49
    


    Read MPEC 2023-C48 Read MPEC 2023-C50


    MPEC number:

    Enter an MPEC number in one of the following forms:

    • 1997-B01 (the full form)
    • J97B01 (the packed version of the full form)
    • B01 (the abbreviated form)